Location: Bratislava
(48.1500°N, 17.1170°E)
Time: 14:55:03
(UTC+01:00)

N. Korean satellite - Pass Details

Date: 24 January 2019
Orbit: 456 x 510 km, 97.2° (Epoch: 21 February)

Event Time Altitude Azimuth Distance (km) Brightness Sun altitude
Rises 17:58:53 0° 196° (SSW) 2,586 10.7 -13.4°
Reaches altitude 10° 18:01:14 10° 210° (SSW) 1,714 10.0 -13.8°
Maximum altitude 18:04:17 24° 266° (W) 1,082 9.3 -14.3°
Drops below altitude 10° 18:07:24 10° 322° (NW) 1,740 9.7 -14.8°
Sets 18:09:48 0° 336° (NNW) 2,633 10.4 -15.2°
